Time,TemperatureF,DewpointF,PressureIn,WindDirection,WindDirectionDegrees,WindSpeedMPH,WindSpeedGustMPH,Humidity,HourlyPrecipIn,Conditions,Clouds,dailyrainin,SoftwareType,DateUTC
2013-06-17 00:01:00,74.7,66.2,29.97,West,263,0.0,0.0,75,0.00,,,0.00,WeatherDisplay:10.36,2013-06-17 05:01:00,
2013-06-17 00:06:00,74.5,66.0,29.97,WSW,241,0.0,0.0,75,0.00,,,0.00,WeatherDisplay:10.36,2013-06-17 05:06:00,
2013-06-17 00:11:00,74.3,65.9,29.97,West,260,0.0,0.0,75,0.00,,,0.00,WeatherDisplay:10.36,2013-06-17 05:11:00,
2013-06-17 00:16:00,74.3,66.2,29.97,West,262,0.0,0.0,76,0.00,,,0.00,WeatherDisplay:10.36,2013-06-17 05:16:00,
2013-06-17 00:21:00,74.3,66.2,29.97,West,261,0.0,0.0,76,0.00,,,0.00,WeatherDisplay:10.36,2013-06-17 05:21:00,
2013-06-17 00:26:00,74.3,66.6,29.97,WSW,241,0.0,0.0,77,0.00,,,0.00,WeatherDisplay:10.36,2013-06-17 05:26:00,
2013-06-17 00:31:00,74.1,66.4,29.97,West,263,0.0,0.0,77,0.00,,,0.00,WeatherDisplay:10.36,2013-06-17 05:31:00,
2013-06-17 00:36:00,73.9,66.3,29.97,West,261,0.0,0.0,77,0.00,,,0.00,WeatherDisplay:10.36,2013-06-17 05:36:00,
2013-06-17 00:41:00,73.9,66.3,29.97,West,262,0.0,0.0,77,0.00,,,0.00,WeatherDisplay:10.36,2013-06-17 05:41:00,
2013-06-17 00:46:00,73.9,66.6,29.97,West,263,0.0,0.0,78,0.00,,,0.00,WeatherDisplay:10.36,2013-06-17 05:46:00,
2013-06-17 00:51:00,73.8,66.5,29.97,SW,232,0.0,0.0,78,0.00,,,0.00,WeatherDisplay:10.36,2013-06-17 05:51:00,
2013-06-17 00:56:00,73.8,66.5,29.97,West,259,0.0,0.0,78,0.00,,,0.00,WeatherDisplay:10.36,2013-06-17 05:56:00,
2013-06-17 01:01:00,73.4,66.1,29.94,SW,234,0.0,0.0,78,0.00,,,0.00,WeatherDisplay:10.36,2013-06-17 06:01:00,
2013-06-17 01:06:00,73.4,66.1,29.94,WSW,246,0.0,0.0,78,0.00,,,0.00,WeatherDisplay:10.36,2013-06-17 06:06:00,
2013-06-17 01:11:00,73.2,65.9,29.94,West,262,0.0,0.0,78,0.00,,,0.00,WeatherDisplay:10.36,2013-06-17 06:11:00,
2013-06-17 01:16:00,73.0,65.8,29.94,West,262,0.0,0.0,78,0.00,,,0.00,WeatherDisplay:10.36,2013-06-17 06:16:00,
2013-06-17 01:21:00,73.0,65.8,29.94,West,264,0.0,0.0,78,0.00,,,0.00,WeatherDisplay:10.36,2013-06-17 06:21:00,
2013-06-17 01:26:00,73.0,65.8,29.94,West,260,0.0,0.0,78,0.00,,,0.00,WeatherDisplay:10.36,2013-06-17 06:26:00,
2013-06-17 01:31:00,73.0,66.1,29.94,West,262,0.0,0.0,79,0.00,,,0.00,WeatherDisplay:10.36,2013-06-17 06:31:00,
2013-06-17 01:36:00,73.0,66.1,29.94,West,260,0.0,0.0,79,0.00,,,0.00,WeatherDisplay:10.36,2013-06-17 06:36:00,
2013-06-17 01:41:00,72.9,66.0,29.94,West,263,0.0,0.0,79,0.00,,,0.00,WeatherDisplay:10.36,2013-06-17 06:41:00,
2013-06-17 01:46:00,72.7,65.8,29.94,SW,236,0.0,0.0,79,0.00,,,0.00,WeatherDisplay:10.36,2013-06-17 06:46:00,
2013-06-17 01:51:00,72.7,65.8,29.94,WSW,258,0.0,0.0,79,0.00,,,0.00,WeatherDisplay:10.36,2013-06-17 06:51:00,
2013-06-17 01:56:00,72.5,65.6,29.94,West,261,0.0,0.0,79,0.00,,,0.00,WeatherDisplay:10.36,2013-06-17 06:56:00,
2013-06-17 02:01:00,72.3,65.8,29.94,WSW,242,0.0,0.0,80,0.00,,,0.00,WeatherDisplay:10.36,2013-06-17 07:01:00,
2013-06-17 02:06:00,72.3,65.8,29.94,WSW,244,0.0,0.0,80,0.00,,,0.00,WeatherDisplay:10.36,2013-06-17 07:06:00,
2013-06-17 02:11:00,72.3,65.8,29.94,West,264,0.0,0.0,80,0.00,,,0.00,WeatherDisplay:10.36,2013-06-17 07:11:00,
2013-06-17 02:16:00,72.3,65.8,29.94,West,260,0.0,0.0,80,0.00,,,0.00,WeatherDisplay:10.36,2013-06-17 07:16:00,
2013-06-17 02:21:00,72.3,65.8,29.94,West,263,0.0,0.0,80,0.00,,,0.00,WeatherDisplay:10.36,2013-06-17 07:21:00,
2013-06-17 02:26:00,72.1,65.6,29.94,WSW,257,0.0,0.0,80,0.00,,,0.00,WeatherDisplay:10.36,2013-06-17 07:26:00,
2013-06-17 02:31:00,72.1,65.6,29.94,West,261,0.0,0.0,80,0.00,,,0.00,WeatherDisplay:10.36,2013-06-17 07:31:00,
2013-06-17 02:36:00,72.1,65.6,29.94,West,264,0.0,0.0,80,0.00,,,0.00,WeatherDisplay:10.36,2013-06-17 07:36:00,
2013-06-17 02:41:00,72.1,65.6,29.94,West,262,0.0,0.0,80,0.00,,,0.00,WeatherDisplay:10.36,2013-06-17 07:41:00,
2013-06-17 02:46:00,72.1,65.6,29.94,West,261,0.0,0.0,80,0.00,,,0.00,WeatherDisplay:10.36,2013-06-17 07:46:00,
2013-06-17 02:51:00,72.0,65.5,29.94,SW,231,0.0,0.0,80,0.00,,,0.00,WeatherDisplay:10.36,2013-06-17 07:51:00,
2013-06-17 02:56:00,72.0,65.5,29.94,West,264,0.0,0.0,80,0.00,,,0.00,WeatherDisplay:10.36,2013-06-17 07:56:00,
2013-06-17 03:01:00,72.1,65.6,29.94,West,261,0.0,0.0,80,0.00,,,0.00,WeatherDisplay:10.36,2013-06-17 08:01:00,
2013-06-17 03:06:00,72.0,65.5,29.94,West,264,0.0,0.0,80,0.00,,,0.00,WeatherDisplay:10.36,2013-06-17 08:06:00,
2013-06-17 03:11:00,71.8,65.3,29.94,SW,229,0.0,0.0,80,0.00,,,0.00,WeatherDisplay:10.36,2013-06-17 08:11:00,
2013-06-17 03:16:00,71.8,65.6,29.94,West,263,0.0,0.0,81,0.00,,,0.00,WeatherDisplay:10.36,2013-06-17 08:16:00,
2013-06-17 03:21:00,71.6,65.5,29.94,West,264,0.0,0.0,81,0.00,,,0.00,WeatherDisplay:10.36,2013-06-17 08:21:00,
2013-06-17 03:26:00,71.6,65.5,29.94,West,263,0.0,0.0,81,0.00,,,0.00,WeatherDisplay:10.36,2013-06-17 08:26:00,
2013-06-17 03:31:00,71.4,65.3,29.94,West,263,0.0,0.0,81,0.00,,,0.00,WeatherDisplay:10.36,2013-06-17 08:31:00,
2013-06-17 03:36:00,71.4,65.3,29.94,SW,231,0.0,0.0,81,0.00,,,0.00,WeatherDisplay:10.36,2013-06-17 08:36:00,
2013-06-17 03:41:00,71.6,65.5,29.94,WSW,249,0.0,0.0,81,0.00,,,0.00,WeatherDisplay:10.36,2013-06-17 08:41:00,
2013-06-17 03:46:00,71.6,65.5,29.94,West,262,0.0,0.0,81,0.00,,,0.00,WeatherDisplay:10.36,2013-06-17 08:46:00,
2013-06-17 03:51:00,71.6,65.5,29.94,West,264,0.0,0.0,81,0.00,,,0.00,WeatherDisplay:10.36,2013-06-17 08:51:00,
2013-06-17 03:56:00,71.6,65.5,29.94,West,262,0.0,0.0,81,0.00,,,0.00,WeatherDisplay:10.36,2013-06-17 08:56:00,
2013-06-17 04:01:00,71.4,65.3,29.94,West,264,0.0,0.0,81,0.00,,,0.00,WeatherDisplay:10.36,2013-06-17 09:01:00,
2013-06-17 04:06:00,71.4,65.3,29.94,West,262,0.0,0.0,81,0.00,,,0.00,WeatherDisplay:10.36,2013-06-17 09:06:00,
2013-06-17 04:11:00,71.4,65.3,29.94,West,264,0.0,0.0,81,0.00,,,0.00,WeatherDisplay:10.36,2013-06-17 09:11:00,
2013-06-17 04:16:00,71.4,65.3,29.94,WSW,245,0.0,0.0,81,0.00,,,0.00,WeatherDisplay:10.36,2013-06-17 09:16:00,
2013-06-17 04:21:00,71.6,65.5,29.94,West,263,0.0,0.0,81,0.00,,,0.00,WeatherDisplay:10.36,2013-06-17 09:21:00,
2013-06-17 04:26:00,71.4,65.3,29.94,West,263,0.0,0.0,81,0.00,,,0.00,WeatherDisplay:10.36,2013-06-17 09:26:00,
2013-06-17 04:31:00,71.6,65.5,29.94,West,260,0.0,0.0,81,0.00,,,0.00,WeatherDisplay:10.36,2013-06-17 09:31:00,
2013-06-17 04:36:00,71.6,66.2,29.91,West,263,0.0,0.0,83,0.00,,,0.00,WeatherDisplay:10.36,2013-06-17 09:36:00,
2013-06-17 04:41:00,71.4,66.7,29.91,West,263,3.6,3.6,85,0.00,,,0.00,WeatherDisplay:10.36,2013-06-17 09:41:00,
2013-06-17 04:46:00,71.2,66.5,29.91,West,261,0.0,0.0,85,0.00,,,0.00,WeatherDisplay:10.36,2013-06-17 09:46:00,
2013-06-17 04:51:00,71.1,66.7,29.91,West,264,0.0,0.0,86,0.00,,,0.00,WeatherDisplay:10.36,2013-06-17 09:51:00,
2013-06-17 04:56:00,71.1,66.7,29.91,SW,221,0.0,0.0,86,0.00,,,0.00,WeatherDisplay:10.36,2013-06-17 09:56:00,
2013-06-17 05:01:00,71.2,66.8,29.91,West,264,0.0,0.0,86,0.00,,,0.00,WeatherDisplay:10.36,2013-06-17 10:01:00,
2013-06-17 05:06:00,71.2,66.8,29.91,West,263,0.0,0.0,86,0.00,,,0.00,WeatherDisplay:10.36,2013-06-17 10:06:00,
2013-06-17 05:11:00,71.2,66.8,29.91,West,263,0.0,0.0,86,0.00,,,0.00,WeatherDisplay:10.36,2013-06-17 10:11:00,
2013-06-17 05:17:00,71.2,66.8,29.94,WSW,240,0.0,0.0,86,0.00,,,0.00,WeatherDisplay:10.36,2013-06-17 10:17:00,
2013-06-17 05:22:00,71.2,66.8,29.94,SW,230,0.0,0.0,86,0.00,,,0.00,WeatherDisplay:10.36,2013-06-17 10:22:00,
2013-06-17 05:27:00,71.1,66.7,29.94,WSW,243,0.0,0.0,86,0.00,,,0.00,WeatherDisplay:10.36,2013-06-17 10:27:00,
2013-06-17 05:32:00,71.1,66.7,29.94,West,262,0.0,0.0,86,0.00,,,0.00,WeatherDisplay:10.36,2013-06-17 10:32:00,
2013-06-17 05:37:00,71.1,66.3,29.94,West,262,0.0,0.0,85,0.00,,,0.00,WeatherDisplay:10.36,2013-06-17 10:37:00,
2013-06-17 05:42:00,71.1,66.7,29.94,West,264,0.0,0.0,86,0.00,,,0.00,WeatherDisplay:10.36,2013-06-17 10:42:00,
2013-06-17 05:47:00,71.1,66.3,29.94,West,262,0.0,0.0,85,0.00,,,0.00,WeatherDisplay:10.36,2013-06-17 10:47:00,
2013-06-17 05:52:00,71.1,66.3,29.94,West,264,0.0,0.0,85,0.00,,,0.00,WeatherDisplay:10.36,2013-06-17 10:52:00,
2013-06-17 05:57:00,71.1,66.3,29.94,West,262,0.0,0.0,85,0.00,,,0.00,WeatherDisplay:10.36,2013-06-17 10:57:00,
2013-06-17 06:02:00,71.2,66.5,29.91,WSW,258,0.0,0.0,85,0.00,,,0.00,WeatherDisplay:10.36,2013-06-17 11:02:00,
2013-06-17 06:07:00,71.2,66.5,29.91,SW,227,0.0,0.0,85,0.00,,,0.00,WeatherDisplay:10.36,2013-06-17 11:07:00,
2013-06-17 06:12:00,71.2,66.5,29.91,SW,232,0.0,0.0,85,0.00,,,0.00,WeatherDisplay:10.36,2013-06-17 11:12:00,
2013-06-17 06:17:00,71.2,66.5,29.94,West,261,0.0,0.0,85,0.00,,,0.00,WeatherDisplay:10.36,2013-06-17 11:17:00,
2013-06-17 06:22:00,71.2,66.5,29.94,West,261,0.0,0.0,85,0.00,,,0.00,WeatherDisplay:10.36,2013-06-17 11:22:00,
2013-06-17 06:27:00,71.2,66.5,29.94,West,264,0.0,0.0,85,0.00,,,0.00,WeatherDisplay:10.36,2013-06-17 11:27:00,
2013-06-17 06:32:00,71.4,66.7,29.94,West,264,0.0,0.0,85,0.00,,,0.00,WeatherDisplay:10.36,2013-06-17 11:32:00,
2013-06-17 06:37:00,71.4,66.7,29.94,West,264,0.0,0.0,85,0.00,,,0.00,WeatherDisplay:10.36,2013-06-17 11:37:00,
2013-06-17 06:42:00,71.6,66.8,29.94,West,264,0.0,0.0,85,0.00,,,0.00,WeatherDisplay:10.36,2013-06-17 11:42:00,
2013-06-17 06:47:00,71.8,67.0,29.94,WSW,241,0.0,0.0,85,0.00,,,0.00,WeatherDisplay:10.36,2013-06-17 11:47:00,
2013-06-17 06:52:00,71.8,67.0,29.94,SW,234,0.0,0.0,85,0.00,,,0.00,WeatherDisplay:10.36,2013-06-17 11:52:00,
2013-06-17 06:57:00,72.0,67.2,29.94,North,351,0.0,0.0,85,0.00,,,0.00,WeatherDisplay:10.36,2013-06-17 11:57:00,
2013-06-17 07:02:00,72.0,67.2,30.76,North,351,0.0,0.0,85,0.00,,,0.00,WeatherDisplay:10.36,2013-06-17 12:02:00,
2013-06-17 07:07:00,72.1,67.4,30.76,North,351,0.0,0.0,85,0.00,,,0.00,WeatherDisplay:10.36,2013-06-17 12:07:00,
2013-06-17 07:12:00,72.1,67.0,30.76,North,351,0.0,0.0,84,0.00,,,0.00,WeatherDisplay:10.36,2013-06-17 12:12:00,
2013-06-17 07:17:00,72.1,67.4,30.76,North,351,0.0,0.0,85,0.00,,,0.00,WeatherDisplay:10.36,2013-06-17 12:17:00,
2013-06-17 07:22:00,72.3,67.6,30.76,North,351,0.0,0.0,85,0.00,,,0.00,WeatherDisplay:10.36,2013-06-17 12:22:00,
2013-06-17 07:27:00,72.3,67.6,30.76,North,351,0.0,0.0,85,0.00,,,0.00,WeatherDisplay:10.36,2013-06-17 12:27:00,
2013-06-17 07:32:00,72.3,67.6,30.76,North,351,0.0,0.0,85,0.00,,,0.00,WeatherDisplay:10.36,2013-06-17 12:32:00,
2013-06-17 07:37:00,72.7,67.9,30.76,North,351,0.0,0.0,85,0.00,,,0.00,WeatherDisplay:10.36,2013-06-17 12:37:00,
2013-06-17 07:42:00,72.7,67.9,30.76,North,351,0.0,0.0,85,0.00,,,0.00,WeatherDisplay:10.36,2013-06-17 12:42:00,
2013-06-17 07:47:00,72.9,68.1,29.94,NE,35,0.0,0.0,85,0.00,,,0.00,WeatherDisplay:10.36,2013-06-17 12:47:00,
2013-06-17 07:52:00,73.0,68.3,29.94,NE,35,0.0,0.0,85,0.00,,,0.00,WeatherDisplay:10.36,2013-06-17 12:52:00,
2013-06-17 07:57:00,73.0,68.3,29.94,NE,35,0.0,0.0,85,0.00,,,0.00,WeatherDisplay:10.36,2013-06-17 12:57:00,
2013-06-17 08:02:00,73.4,68.6,29.94,NE,35,0.0,0.0,85,0.00,,,0.00,WeatherDisplay:10.36,2013-06-17 13:02:00,
2013-06-17 08:07:00,73.4,68.6,29.94,NE,35,0.0,0.0,85,0.00,,,0.00,WeatherDisplay:10.36,2013-06-17 13:07:00,
2013-06-17 08:12:00,73.6,68.8,29.94,NE,35,0.0,0.0,85,0.00,,,0.00,WeatherDisplay:10.36,2013-06-17 13:12:00,
2013-06-17 08:17:00,73.8,69.0,29.94,NE,35,0.0,0.0,85,0.00,,,0.00,WeatherDisplay:10.36,2013-06-17 13:17:00,
2013-06-17 08:22:00,73.9,69.1,29.94,NE,35,0.0,0.0,85,0.00,,,0.00,WeatherDisplay:10.36,2013-06-17 13:22:00,
2013-06-17 08:27:00,74.1,69.3,29.94,NE,35,0.0,0.0,85,0.00,,,0.00,WeatherDisplay:10.36,2013-06-17 13:27:00,
2013-06-17 08:32:00,74.5,69.7,29.94,NE,35,0.0,0.0,85,0.00,,,0.00,WeatherDisplay:10.36,2013-06-17 13:32:00,
2013-06-17 08:37:00,74.8,70.0,29.94,NE,35,0.0,0.0,85,0.00,,,0.00,WeatherDisplay:10.36,2013-06-17 13:37:00,
2013-06-17 08:42:00,75.2,70.0,29.94,NE,35,0.0,0.0,84,0.00,,,0.00,WeatherDisplay:10.36,2013-06-17 13:42:00,
2013-06-17 08:47:00,75.2,70.0,29.94,NE,35,0.0,0.0,84,0.00,,,0.00,WeatherDisplay:10.36,2013-06-17 13:47:00,
2013-06-17 08:52:00,75.6,70.4,29.94,NNE,33,0.0,0.0,84,0.00,,,0.00,WeatherDisplay:10.36,2013-06-17 13:52:00,
2013-06-17 08:57:00,75.7,69.5,29.94,North,351,0.0,0.0,81,0.00,,,0.00,WeatherDisplay:10.36,2013-06-17 13:57:00,
2013-06-17 09:02:00,76.1,69.8,30.41,North,351,0.0,0.0,81,0.00,,,0.00,WeatherDisplay:10.36,2013-06-17 14:02:00,
2013-06-17 09:07:00,76.3,69.7,30.41,North,351,0.0,0.0,80,0.00,,,0.00,WeatherDisplay:10.36,2013-06-17 14:07:00,
2013-06-17 09:12:00,76.6,70.0,30.41,North,351,0.0,0.0,80,0.00,,,0.00,WeatherDisplay:10.36,2013-06-17 14:12:00,
2013-06-17 09:17:00,76.8,69.8,29.94,NNE,27,0.0,0.0,79,0.00,,,0.00,WeatherDisplay:10.36,2013-06-17 14:17:00,
2013-06-17 09:22:00,76.8,69.1,29.94,NE,34,0.0,0.0,77,0.00,,,0.00,WeatherDisplay:10.36,2013-06-17 14:22:00,
2013-06-17 09:27:00,76.8,68.3,29.94,NNE,31,0.0,0.0,75,0.00,,,0.00,WeatherDisplay:10.36,2013-06-17 14:27:00,
2013-06-17 09:32:00,77.0,68.5,29.94,SW,216,0.0,0.0,75,0.00,,,0.00,WeatherDisplay:10.36,2013-06-17 14:32:00,
2013-06-17 09:37:00,77.4,68.8,29.94,South,187,0.0,0.0,75,0.00,,,0.00,WeatherDisplay:10.36,2013-06-17 14:37:00,
2013-06-17 09:42:00,77.7,69.2,29.94,SSE,157,0.0,0.0,75,0.00,,,0.00,WeatherDisplay:10.36,2013-06-17 14:42:00,
2013-06-17 09:47:00,78.1,69.5,29.94,South,181,0.0,0.0,75,0.00,,,0.00,WeatherDisplay:10.36,2013-06-17 14:47:00,
2013-06-17 09:52:00,78.4,69.1,29.94,South,173,0.0,0.0,73,0.00,,,0.00,WeatherDisplay:10.36,2013-06-17 14:52:00,
2013-06-17 09:57:00,78.6,68.0,29.94,NNE,27,0.0,0.0,70,0.00,,,0.00,WeatherDisplay:10.36,2013-06-17 14:57:00,
2013-06-17 10:02:00,78.8,67.8,29.94,West,262,4.0,4.0,69,0.00,,,0.00,WeatherDisplay:10.36,2013-06-17 15:02:00,
2013-06-17 10:07:00,79.2,68.1,29.94,West,260,0.0,0.0,69,0.00,,,0.00,WeatherDisplay:10.36,2013-06-17 15:07:00,
2013-06-17 10:12:00,79.3,67.9,29.94,NNE,27,3.6,0.0,68,0.00,,,0.00,WeatherDisplay:10.36,2013-06-17 15:12:00,
2013-06-17 10:17:00,79.7,67.8,29.94,North,351,2.3,0.0,67,0.00,,,0.00,WeatherDisplay:10.36,2013-06-17 15:17:00,
2013-06-17 10:22:00,80.1,68.1,29.94,North,351,0.0,0.0,67,0.00,,,0.00,WeatherDisplay:10.36,2013-06-17 15:22:00,
2013-06-17 10:27:00,80.4,68.5,29.94,North,351,0.0,0.0,67,0.00,,,0.00,WeatherDisplay:10.36,2013-06-17 15:27:00,
2013-06-17 10:32:00,80.8,67.5,29.94,North,351,4.6,4.6,64,0.00,,,0.00,WeatherDisplay:10.36,2013-06-17 15:32:00,
2013-06-17 10:37:00,80.8,67.5,29.94,North,351,0.0,0.0,64,0.00,,,0.00,WeatherDisplay:10.36,2013-06-17 15:37:00,
2013-06-17 10:42:00,81.0,67.2,29.94,NE,40,0.0,0.0,63,0.00,,,0.00,WeatherDisplay:10.36,2013-06-17 15:42:00,
2013-06-17 10:47:00,81.5,68.1,29.94,NE,40,0.0,0.0,64,0.00,,,0.00,WeatherDisplay:10.36,2013-06-17 15:47:00,
2013-06-17 10:52:00,81.9,66.6,29.94,NNE,27,3.5,0.0,60,0.00,,,0.00,WeatherDisplay:10.36,2013-06-17 15:52:00,
2013-06-17 10:57:00,82.2,67.4,29.94,NNE,31,0.0,0.0,61,0.00,,,0.00,WeatherDisplay:10.36,2013-06-17 15:57:00,
2013-06-17 11:02:00,82.4,66.1,29.94,NNE,33,0.0,0.0,58,0.00,,,0.00,WeatherDisplay:10.36,2013-06-17 16:02:00,
2013-06-17 11:07:00,82.6,66.8,29.94,NE,38,3.5,0.0,59,0.00,,,0.00,WeatherDisplay:10.36,2013-06-17 16:07:00,
2013-06-17 11:12:00,82.9,65.6,29.94,North,351,3.5,3.5,56,0.00,,,0.00,WeatherDisplay:10.36,2013-06-17 16:12:00,
2013-06-17 11:17:00,83.1,66.3,29.94,NNE,27,0.0,0.0,57,0.00,,,0.00,WeatherDisplay:10.36,2013-06-17 16:17:00,
2013-06-17 11:22:00,83.3,66.0,29.94,NNE,27,0.0,0.0,56,0.00,,,0.00,WeatherDisplay:10.36,2013-06-17 16:22:00,
2013-06-17 11:27:00,83.7,66.3,29.94,NNE,27,0.0,0.0,56,0.00,,,0.00,WeatherDisplay:10.36,2013-06-17 16:27:00,
2013-06-17 11:32:00,84.0,65.6,29.94,North,351,4.9,0.0,54,0.00,,,0.00,WeatherDisplay:10.36,2013-06-17 16:32:00,
2013-06-17 11:37:00,84.0,64.5,29.94,North,351,3.6,3.6,52,0.00,,,0.00,WeatherDisplay:10.36,2013-06-17 16:37:00,
2013-06-17 11:42:00,83.7,63.6,29.94,NE,34,4.0,0.0,51,0.00,,,0.00,WeatherDisplay:10.36,2013-06-17 16:42:00,
2013-06-17 11:47:00,83.8,63.8,29.94,NNE,32,0.0,0.0,51,0.00,,,0.00,WeatherDisplay:10.36,2013-06-17 16:47:00,
2013-06-17 11:52:00,83.8,64.3,29.94,NNE,30,0.0,0.0,52,0.00,,,0.00,WeatherDisplay:10.36,2013-06-17 16:52:00,
2013-06-17 11:57:00,84.0,62.8,29.94,West,264,5.8,5.8,49,0.00,,,0.00,WeatherDisplay:10.36,2013-06-17 16:57:00,
2013-06-17 12:02:00,83.8,62.6,29.94,West,261,0.0,0.0,49,0.00,,,0.00,WeatherDisplay:10.36,2013-06-17 17:02:00,
2013-06-17 12:07:00,84.2,64.1,29.94,NE,40,0.0,0.0,51,0.00,,,0.00,WeatherDisplay:10.36,2013-06-17 17:07:00,
2013-06-17 12:12:00,84.0,62.2,29.94,North,351,4.6,4.6,48,0.00,,,0.00,WeatherDisplay:10.36,2013-06-17 17:12:00,
2013-06-17 12:17:00,84.0,63.4,30.76,North,351,0.0,0.0,50,0.00,,,0.00,WeatherDisplay:10.36,2013-06-17 17:17:00,
2013-06-17 12:23:00,84.4,63.7,30.76,NNE,30,4.0,0.0,50,0.00,,,0.00,WeatherDisplay:10.36,2013-06-17 17:23:00,
2013-06-17 12:28:00,84.4,63.1,30.76,NNE,31,0.0,0.0,49,0.00,,,0.00,WeatherDisplay:10.36,2013-06-17 17:28:00,
2013-06-17 12:33:00,84.7,64.0,29.94,NNE,31,0.0,0.0,50,0.00,,,0.00,WeatherDisplay:10.36,2013-06-17 17:33:00,
2013-06-17 12:38:00,84.9,62.4,29.94,North,351,0.0,0.0,47,0.00,,,0.00,WeatherDisplay:10.36,2013-06-17 17:38:00,
2013-06-17 12:43:00,84.9,62.4,29.94,North,351,0.0,0.0,47,0.00,,,0.00,WeatherDisplay:10.36,2013-06-17 17:43:00,
2013-06-17 12:48:00,85.1,62.0,30.79,NE,40,6.3,0.0,46,0.00,,,0.00,WeatherDisplay:10.36,2013-06-17 17:48:00,
2013-06-17 12:53:00,84.9,61.2,30.79,NE,42,4.6,4.6,45,0.00,,,0.00,WeatherDisplay:10.36,2013-06-17 17:53:00,
2013-06-17 12:58:00,85.1,62.0,30.79,NE,42,0.0,0.0,46,0.00,,,0.00,WeatherDisplay:10.36,2013-06-17 17:58:00,
2013-06-17 13:03:00,85.1,61.4,29.94,NE,42,0.0,0.0,45,0.00,,,0.00,WeatherDisplay:10.36,2013-06-17 18:03:00,
2013-06-17 13:08:00,85.3,61.5,29.94,North,351,0.0,0.0,45,0.00,,,0.00,WeatherDisplay:10.36,2013-06-17 18:08:00,
2013-06-17 13:13:00,85.5,61.7,29.94,NE,35,0.0,0.0,45,0.00,,,0.00,WeatherDisplay:10.36,2013-06-17 18:13:00,
2013-06-17 13:18:00,86.0,62.8,29.94,NE,41,3.6,0.0,46,0.00,,,0.00,WeatherDisplay:10.36,2013-06-17 18:18:00,
2013-06-17 13:23:00,86.4,63.1,29.94,NE,40,3.5,0.0,46,0.00,,,0.00,WeatherDisplay:10.36,2013-06-17 18:23:00,
2013-06-17 13:28:00,86.5,63.3,29.94,NE,39,2.7,0.0,46,0.00,,,0.00,WeatherDisplay:10.36,2013-06-17 18:28:00,
2013-06-17 13:33:00,86.9,63.0,29.94,NE,40,0.0,0.0,45,0.00,,,0.00,WeatherDisplay:10.36,2013-06-17 18:33:00,
2013-06-17 13:38:00,86.9,62.4,29.94,NE,39,0.0,0.0,44,0.00,,,0.00,WeatherDisplay:10.36,2013-06-17 18:38:00,
2013-06-17 13:43:00,86.7,61.5,29.94,NNE,30,3.5,3.5,43,0.00,,,0.00,WeatherDisplay:10.36,2013-06-17 18:43:00,
2013-06-17 13:48:00,86.5,61.4,29.94,NE,39,0.0,0.0,43,0.00,,,0.00,WeatherDisplay:10.36,2013-06-17 18:48:00,
2013-06-17 13:53:00,86.4,60.6,29.94,NE,40,0.0,0.0,42,0.00,,,0.00,WeatherDisplay:10.36,2013-06-17 18:53:00,
2013-06-17 13:58:00,86.4,61.2,29.94,NE,39,0.0,0.0,43,0.00,,,0.00,WeatherDisplay:10.36,2013-06-17 18:58:00,
2013-06-17 14:03:00,86.7,62.2,29.94,NE,39,3.5,0.0,44,0.00,,,0.00,WeatherDisplay:10.36,2013-06-17 19:03:00,
2013-06-17 14:08:00,86.7,60.9,29.94,SSW,192,0.0,0.0,42,0.00,,,0.00,WeatherDisplay:10.36,2013-06-17 19:08:00,
2013-06-17 14:13:00,86.7,60.9,29.94,NE,40,4.6,4.6,42,0.00,,,0.00,WeatherDisplay:10.36,2013-06-17 19:13:00,
2013-06-17 14:18:00,86.2,59.7,30.74,NNE,27,6.3,6.3,41,0.00,,,0.00,WeatherDisplay:10.36,2013-06-17 19:18:00,
2013-06-17 14:23:00,85.5,59.8,30.74,West,262,4.6,4.6,42,0.00,,,0.00,WeatherDisplay:10.36,2013-06-17 19:23:00,
2013-06-17 14:28:00,85.3,60.3,30.74,West,263,5.8,5.8,43,0.00,,,0.00,WeatherDisplay:10.36,2013-06-17 19:28:00,
2013-06-17 14:33:00,84.7,61.0,30.65,NE,43,3.6,0.0,45,0.00,,,0.00,WeatherDisplay:10.36,2013-06-17 19:33:00,
2013-06-17 14:38:00,84.9,61.8,30.65,North,351,2.7,0.0,46,0.00,,,0.00,WeatherDisplay:10.36,2013-06-17 19:38:00,
2013-06-17 14:43:00,85.3,61.5,30.65,NE,43,3.6,3.6,45,0.00,,,0.00,WeatherDisplay:10.36,2013-06-17 19:43:00,
2013-06-17 14:48:00,85.3,61.5,29.91,NE,42,0.0,0.0,45,0.00,,,0.00,WeatherDisplay:10.36,2013-06-17 19:48:00,
2013-06-17 14:53:00,85.5,61.1,29.91,North,351,3.6,3.6,44,0.00,,,0.00,WeatherDisplay:10.36,2013-06-17 19:53:00,
2013-06-17 14:58:00,85.3,61.5,29.91,NE,40,0.0,0.0,45,0.00,,,0.00,WeatherDisplay:10.36,2013-06-17 19:58:00,
2013-06-17 15:03:00,85.5,61.7,29.91,North,351,3.6,0.0,45,0.00,,,0.00,WeatherDisplay:10.36,2013-06-17 20:03:00,
2013-06-17 15:08:00,84.9,59.9,29.91,North,351,4.6,0.0,43,0.00,,,0.00,WeatherDisplay:10.36,2013-06-17 20:08:00,
2013-06-17 15:13:00,84.6,60.2,29.91,NE,42,5.8,5.8,44,0.00,,,0.00,WeatherDisplay:10.36,2013-06-17 20:13:00,
2013-06-17 15:18:00,84.0,59.8,30.70,North,351,4.9,4.9,44,0.00,,,0.00,WeatherDisplay:10.36,2013-06-17 20:18:00,
2013-06-17 15:23:00,83.8,60.2,30.70,NE,40,2.7,0.0,45,0.00,,,0.00,WeatherDisplay:10.36,2013-06-17 20:23:00,
2013-06-17 15:28:00,83.8,60.2,30.70,NE,42,0.0,0.0,45,0.00,,,0.00,WeatherDisplay:10.36,2013-06-17 20:28:00,
2013-06-17 15:33:00,83.8,60.2,30.70,NNE,31,0.0,0.0,45,0.00,,,0.00,WeatherDisplay:10.36,2013-06-17 20:33:00,
2013-06-17 15:38:00,83.8,60.2,30.70,North,351,0.0,0.0,45,0.00,,,0.00,WeatherDisplay:10.36,2013-06-17 20:38:00,
2013-06-17 15:43:00,83.8,59.0,30.70,North,351,0.0,0.0,43,0.00,,,0.00,WeatherDisplay:10.36,2013-06-17 20:43:00,
2013-06-17 15:48:00,83.5,59.3,30.70,North,351,0.0,0.0,44,0.00,,,0.00,WeatherDisplay:10.36,2013-06-17 20:48:00,
2013-06-17 15:53:00,83.7,59.4,30.70,North,351,0.0,0.0,44,0.00,,,0.00,WeatherDisplay:10.36,2013-06-17 20:53:00,
2013-06-17 15:58:00,84.0,59.8,30.70,North,351,0.0,0.0,44,0.00,,,0.00,WeatherDisplay:10.36,2013-06-17 20:58:00,
2013-06-17 16:03:00,84.0,59.1,30.70,North,351,0.0,0.0,43,0.00,,,0.00,WeatherDisplay:10.36,2013-06-17 21:03:00,
2013-06-17 16:08:00,84.2,59.3,30.70,North,351,0.0,0.0,43,0.00,,,0.00,WeatherDisplay:10.36,2013-06-17 21:08:00,
2013-06-17 16:13:00,84.2,58.6,30.70,North,351,0.0,0.0,42,0.00,,,0.00,WeatherDisplay:10.36,2013-06-17 21:13:00,
2013-06-17 16:18:00,84.0,58.5,30.70,North,351,0.0,0.0,42,0.00,,,0.00,WeatherDisplay:10.36,2013-06-17 21:18:00,
2013-06-17 16:23:00,84.2,59.3,30.70,North,351,0.0,0.0,43,0.00,,,0.00,WeatherDisplay:10.36,2013-06-17 21:23:00,
2013-06-17 16:28:00,84.2,59.3,30.70,NE,41,4.6,4.6,43,0.00,,,0.00,WeatherDisplay:10.36,2013-06-17 21:28:00,
2013-06-17 16:34:00,84.0,59.8,30.70,North,351,0.0,0.0,44,0.00,,,0.00,WeatherDisplay:10.36,2013-06-17 21:34:00,
2013-06-17 16:39:00,84.0,59.1,30.70,North,351,0.0,0.0,43,0.00,,,0.00,WeatherDisplay:10.36,2013-06-17 21:39:00,
2013-06-17 16:44:00,84.0,59.8,30.70,North,351,0.0,0.0,44,0.00,,,0.00,WeatherDisplay:10.36,2013-06-17 21:44:00,
2013-06-17 16:49:00,84.0,59.1,29.88,NE,41,0.0,0.0,43,0.00,,,0.00,WeatherDisplay:10.36,2013-06-17 21:49:00,
2013-06-17 16:54:00,83.8,59.0,29.88,North,351,5.8,0.0,43,0.00,,,0.00,WeatherDisplay:10.36,2013-06-17 21:54:00,
2013-06-17 16:59:00,83.7,58.8,29.88,NE,41,5.8,5.8,43,0.00,,,0.00,WeatherDisplay:10.36,2013-06-17 21:59:00,
2013-06-17 17:04:00,83.5,59.3,30.70,North,351,0.0,0.0,44,0.00,,,0.00,WeatherDisplay:10.36,2013-06-17 22:04:00,
2013-06-17 17:09:00,83.5,58.6,30.70,North,351,6.3,6.3,43,0.00,,,0.00,WeatherDisplay:10.36,2013-06-17 22:09:00,
2013-06-17 17:14:00,83.1,58.9,30.70,North,351,0.0,0.0,44,0.00,,,0.00,WeatherDisplay:10.36,2013-06-17 22:14:00,
2013-06-17 17:19:00,83.1,58.9,30.70,North,351,0.0,0.0,44,0.00,,,0.00,WeatherDisplay:10.36,2013-06-17 22:19:00,
2013-06-17 17:24:00,83.3,59.7,30.70,North,351,0.0,0.0,45,0.00,,,0.00,WeatherDisplay:10.36,2013-06-17 22:24:00,
2013-06-17 17:29:00,83.5,59.9,30.70,North,351,0.0,0.0,45,0.00,,,0.00,WeatherDisplay:10.36,2013-06-17 22:29:00,
2013-06-17 17:34:00,83.7,60.1,29.91,NE,42,0.0,0.0,45,0.00,,,0.00,WeatherDisplay:10.36,2013-06-17 22:34:00,
2013-06-17 17:39:00,83.8,59.0,29.91,North,351,0.0,0.0,43,0.00,,,0.00,WeatherDisplay:10.36,2013-06-17 22:39:00,
2013-06-17 17:44:00,83.7,58.8,29.91,North,351,0.0,0.0,43,0.00,,,0.00,WeatherDisplay:10.36,2013-06-17 22:44:00,
2013-06-17 17:50:00,83.5,58.6,29.91,NE,42,0.0,0.0,43,0.00,,,0.00,WeatherDisplay:10.36,2013-06-17 22:50:00,
2013-06-17 17:55:00,83.5,58.0,29.91,North,351,3.6,3.6,42,0.00,,,0.00,WeatherDisplay:10.36,2013-06-17 22:55:00,
2013-06-17 18:00:00,83.5,58.6,29.91,West,263,4.0,0.0,43,0.00,,,0.00,WeatherDisplay:10.36,2013-06-17 23:00:00,
2013-06-17 18:05:00,83.7,58.8,29.91,West,263,0.0,0.0,43,0.00,,,0.00,WeatherDisplay:10.36,2013-06-17 23:05:00,
2013-06-17 18:10:00,83.8,59.0,29.91,NE,41,0.0,0.0,43,0.00,,,0.00,WeatherDisplay:10.36,2013-06-17 23:10:00,
2013-06-17 18:15:00,83.8,58.3,29.91,NE,40,0.0,0.0,42,0.00,,,0.00,WeatherDisplay:10.36,2013-06-17 23:15:00,
2013-06-17 18:20:00,84.0,59.1,29.91,NE,42,0.0,0.0,43,0.00,,,0.00,WeatherDisplay:10.36,2013-06-17 23:20:00,
2013-06-17 18:25:00,84.0,58.5,29.91,NE,41,0.0,0.0,42,0.00,,,0.00,WeatherDisplay:10.36,2013-06-17 23:25:00,
2013-06-17 18:30:00,83.8,58.3,29.91,NE,42,5.4,5.4,42,0.00,,,0.00,WeatherDisplay:10.36,2013-06-17 23:30:00,
2013-06-17 18:35:00,83.7,58.1,29.91,NE,42,0.0,0.0,42,0.00,,,0.00,WeatherDisplay:10.36,2013-06-17 23:35:00,
2013-06-17 18:40:00,83.5,58.6,29.91,NE,42,0.0,0.0,43,0.00,,,0.00,WeatherDisplay:10.36,2013-06-17 23:40:00,
2013-06-17 18:45:00,83.5,58.6,29.91,NE,42,0.0,0.0,43,0.00,,,0.00,WeatherDisplay:10.36,2013-06-17 23:45:00,
2013-06-17 18:50:00,83.5,59.9,29.91,NE,42,0.0,0.0,45,0.00,,,0.00,WeatherDisplay:10.36,2013-06-17 23:50:00,
2013-06-17 18:55:00,83.5,59.9,29.91,NE,42,0.0,0.0,45,0.00,,,0.00,WeatherDisplay:10.36,2013-06-17 23:55:00,
2013-06-17 19:00:00,83.3,58.5,29.91,NE,41,0.0,0.0,43,0.00,,,0.00,WeatherDisplay:10.36,2013-06-18 00:00:00,
2013-06-17 19:05:00,83.1,58.9,29.91,NE,41,0.0,0.0,44,0.00,,,0.00,WeatherDisplay:10.36,2013-06-18 00:05:00,
2013-06-17 19:10:00,82.9,59.4,29.91,NE,41,0.0,0.0,45,0.00,,,0.00,WeatherDisplay:10.36,2013-06-18 00:10:00,
2013-06-17 19:15:00,82.8,59.3,29.91,NE,42,0.0,0.0,45,0.00,,,0.00,WeatherDisplay:10.36,2013-06-18 00:15:00,
2013-06-17 19:20:00,82.8,60.5,29.91,NE,42,0.0,0.0,47,0.00,,,0.00,WeatherDisplay:10.36,2013-06-18 00:20:00,
2013-06-17 19:25:00,82.6,60.9,29.91,NE,42,0.0,0.0,48,0.00,,,0.00,WeatherDisplay:10.36,2013-06-18 00:25:00,
2013-06-17 19:30:00,82.6,61.5,29.91,NE,42,0.0,0.0,49,0.00,,,0.00,WeatherDisplay:10.36,2013-06-18 00:30:00,
2013-06-17 19:35:00,82.4,61.9,29.91,NE,42,0.0,0.0,50,0.00,,,0.00,WeatherDisplay:10.36,2013-06-18 00:35:00,
2013-06-17 19:40:00,82.4,61.9,29.91,NE,42,0.0,0.0,50,0.00,,,0.00,WeatherDisplay:10.36,2013-06-18 00:40:00,
2013-06-17 19:45:00,82.2,62.3,29.91,NE,42,0.0,0.0,51,0.00,,,0.00,WeatherDisplay:10.36,2013-06-18 00:45:00,
2013-06-17 19:50:00,82.0,62.7,29.91,NE,42,0.0,0.0,52,0.00,,,0.00,WeatherDisplay:10.36,2013-06-18 00:50:00,
2013-06-17 19:55:00,81.9,62.5,29.91,NE,42,0.0,0.0,52,0.00,,,0.00,WeatherDisplay:10.36,2013-06-18 00:55:00,
2013-06-17 20:00:00,81.5,62.7,29.91,NE,42,0.0,0.0,53,0.00,,,0.00,WeatherDisplay:10.36,2013-06-18 01:00:00,
2013-06-17 20:05:00,81.0,62.7,29.91,NE,42,0.0,0.0,54,0.00,,,0.00,WeatherDisplay:10.36,2013-06-18 01:05:00,
2013-06-17 20:10:00,80.8,63.1,29.91,NE,42,0.0,0.0,55,0.00,,,0.00,WeatherDisplay:10.36,2013-06-18 01:10:00,
2013-06-17 20:15:00,80.6,62.4,29.91,NE,42,0.0,0.0,54,0.00,,,0.00,WeatherDisplay:10.36,2013-06-18 01:15:00,
2013-06-17 20:20:00,80.2,61.6,29.91,NE,42,0.0,0.0,53,0.00,,,0.00,WeatherDisplay:10.36,2013-06-18 01:20:00,
2013-06-17 20:25:00,80.1,61.4,29.91,NE,42,0.0,0.0,53,0.00,,,0.00,WeatherDisplay:10.36,2013-06-18 01:25:00,
2013-06-17 20:31:00,79.7,61.1,29.91,NE,42,0.0,0.0,53,0.00,,,0.00,WeatherDisplay:10.36,2013-06-18 01:31:00,
2013-06-17 20:36:00,79.3,61.2,29.91,NE,42,0.0,0.0,54,0.00,,,0.00,WeatherDisplay:10.36,2013-06-18 01:36:00,
2013-06-17 20:41:00,79.2,61.6,29.91,NE,42,0.0,0.0,55,0.00,,,0.00,WeatherDisplay:10.36,2013-06-18 01:41:00,
2013-06-17 20:46:00,78.8,61.8,29.91,NE,42,0.0,0.0,56,0.00,,,0.00,WeatherDisplay:10.36,2013-06-18 01:46:00,
2013-06-17 20:51:00,78.3,61.3,29.91,NE,42,0.0,0.0,56,0.00,,,0.00,WeatherDisplay:10.36,2013-06-18 01:51:00,
2013-06-17 20:56:00,78.1,61.6,29.91,NE,42,0.0,0.0,57,0.00,,,0.00,WeatherDisplay:10.36,2013-06-18 01:56:00,
2013-06-17 21:01:00,77.9,61.9,29.91,NE,42,0.0,0.0,58,0.00,,,0.00,WeatherDisplay:10.36,2013-06-18 02:01:00,
2013-06-17 21:06:00,77.4,61.4,29.91,NE,42,0.0,0.0,58,0.00,,,0.00,WeatherDisplay:10.36,2013-06-18 02:06:00,
2013-06-17 21:11:00,77.2,61.7,29.91,NE,43,0.0,0.0,59,0.00,,,0.00,WeatherDisplay:10.36,2013-06-18 02:11:00,
2013-06-17 21:16:00,77.0,62.0,29.91,NE,42,0.0,0.0,60,0.00,,,0.00,WeatherDisplay:10.36,2013-06-18 02:16:00,
2013-06-17 21:21:00,77.0,63.0,29.91,NE,38,6.7,6.7,62,0.00,,,0.00,WeatherDisplay:10.36,2013-06-18 02:21:00,
2013-06-17 21:26:00,76.8,63.7,29.91,NE,40,10.1,10.1,64,0.00,,,0.00,WeatherDisplay:10.36,2013-06-18 02:26:00,
2013-06-17 21:31:00,76.6,63.1,29.91,ENE,70,4.6,4.6,63,0.00,,,0.00,WeatherDisplay:10.36,2013-06-18 02:31:00,
2013-06-17 21:36:00,76.3,62.8,29.94,NE,41,5.4,0.0,63,0.00,,,0.00,WeatherDisplay:10.36,2013-06-18 02:36:00,
2013-06-17 21:41:00,76.1,63.0,29.94,NE,43,6.9,6.9,64,0.00,,,0.00,WeatherDisplay:10.36,2013-06-18 02:41:00,
2013-06-17 21:46:00,75.7,62.7,29.94,NE,44,6.9,6.9,64,0.00,,,0.00,WeatherDisplay:10.36,2013-06-18 02:46:00,
2013-06-17 21:51:00,75.4,62.4,29.94,NE,44,6.9,6.9,64,0.00,,,0.00,WeatherDisplay:10.36,2013-06-18 02:51:00,
2013-06-17 21:56:00,75.0,62.0,29.94,NE,43,5.4,5.4,64,0.00,,,0.00,WeatherDisplay:10.36,2013-06-18 02:56:00,
2013-06-17 22:01:00,74.8,62.3,29.94,NE,41,6.9,6.9,65,0.00,,,0.00,WeatherDisplay:10.36,2013-06-18 03:01:00,
2013-06-17 22:06:00,74.7,62.1,29.94,NE,43,4.6,0.0,65,0.00,,,0.00,WeatherDisplay:10.36,2013-06-18 03:06:00,
2013-06-17 22:11:00,74.5,61.5,29.94,NE,43,4.0,4.0,64,0.00,,,0.00,WeatherDisplay:10.36,2013-06-18 03:11:00,
2013-06-17 22:16:00,74.3,61.8,29.94,NE,42,2.7,0.0,65,0.00,,,0.00,WeatherDisplay:10.36,2013-06-18 03:16:00,
2013-06-17 22:21:00,74.1,61.6,29.94,NE,42,5.8,5.8,65,0.00,,,0.00,WeatherDisplay:10.36,2013-06-18 03:21:00,
2013-06-17 22:26:00,73.9,61.9,29.94,NE,41,5.4,5.4,66,0.00,,,0.00,WeatherDisplay:10.36,2013-06-18 03:26:00,
2013-06-17 22:31:00,73.8,61.7,29.94,NE,44,6.9,6.9,66,0.00,,,0.00,WeatherDisplay:10.36,2013-06-18 03:31:00,
2013-06-17 22:36:00,73.6,61.5,29.94,NE,41,6.3,6.3,66,0.00,,,0.00,WeatherDisplay:10.36,2013-06-18 03:36:00,
2013-06-17 22:41:00,73.6,61.5,29.94,NE,46,5.8,5.8,66,0.00,,,0.00,WeatherDisplay:10.36,2013-06-18 03:41:00,
2013-06-17 22:46:00,73.4,61.3,29.94,NE,44,4.9,4.9,66,0.00,,,0.00,WeatherDisplay:10.36,2013-06-18 03:46:00,
2013-06-17 22:51:00,73.2,61.2,29.94,NE,41,6.3,6.3,66,0.00,,,0.00,WeatherDisplay:10.36,2013-06-18 03:51:00,
2013-06-17 22:56:00,73.0,61.0,29.94,NE,43,5.4,5.4,66,0.00,,,0.00,WeatherDisplay:10.36,2013-06-18 03:56:00,
2013-06-17 23:01:00,72.9,60.8,29.94,NE,44,4.6,4.6,66,0.00,,,0.00,WeatherDisplay:10.36,2013-06-18 04:01:00,
2013-06-17 23:03:00,72.7,60.7,29.91,NE,45,6.9,6.9,66,0.00,,,0.00,WeatherDisplay:10.36,2013-06-18 04:03:00,
2013-06-17 23:04:00,72.7,60.7,29.91,NE,43,5.8,5.8,66,0.00,,,0.00,WeatherDisplay:10.36,2013-06-18 04:04:00,
2013-06-17 23:07:00,72.7,60.7,29.91,NE,42,3.6,3.6,66,0.00,,,0.00,WeatherDisplay:10.36,2013-06-18 04:07:00,
2013-06-17 23:09:00,72.5,60.5,29.91,NE,43,3.6,3.6,66,0.00,,,0.00,WeatherDisplay:10.36,2013-06-18 04:09:00,
2013-06-17 23:14:00,72.5,60.9,29.91,NE,43,4.5,4.5,67,0.00,,,0.00,WeatherDisplay:10.36,2013-06-18 04:14:00,
2013-06-17 23:19:00,72.3,60.7,29.91,NE,45,4.6,4.6,67,0.00,,,0.00,WeatherDisplay:10.36,2013-06-18 04:19:00,
2013-06-17 23:24:00,72.1,60.6,29.91,NE,44,3.6,3.6,67,0.00,,,0.00,WeatherDisplay:10.36,2013-06-18 04:24:00,
2013-06-17 23:29:00,72.1,60.6,29.91,NE,44,3.6,3.6,67,0.00,,,0.00,WeatherDisplay:10.36,2013-06-18 04:29:00,
2013-06-17 23:34:00,72.0,60.8,29.91,NE,44,4.0,4.0,68,0.00,,,0.00,WeatherDisplay:10.36,2013-06-18 04:34:00,
2013-06-17 23:39:00,71.8,60.6,29.91,NE,44,3.6,3.6,68,0.00,,,0.00,WeatherDisplay:10.36,2013-06-18 04:39:00,
2013-06-17 23:44:00,71.8,60.6,29.91,NE,43,4.5,4.5,68,0.00,,,0.00,WeatherDisplay:10.36,2013-06-18 04:44:00,
2013-06-17 23:49:00,71.6,60.5,29.91,NE,44,4.0,0.0,68,0.00,,,0.00,WeatherDisplay:10.36,2013-06-18 04:49:00,
2013-06-17 23:54:00,71.4,60.3,29.91,NE,43,4.6,4.6,68,0.00,,,0.00,WeatherDisplay:10.36,2013-06-18 04:54:00,
2013-06-17 23:59:00,71.4,60.3,29.91,NE,43,4.9,4.9,68,0.00,,,0.00,WeatherDisplay:10.36,2013-06-18 04:59:00,